Houlton, ME

6:10 PM EST on January 18, 2017 (GMT -0500)
Houlton International

Weather History for KHUL - November, 2012

Change the Weather History Date:

Thursday, November 22, 2012

  Actual Average Record
Temperature  
Mean Temperature 35 °F 30 °F  
Max Temperature 46 °F 38 °F 57 °F (2005)
Min Temperature 23 °F 22 °F -5 °F (1978)
Degree Days  
Heating Degree Days 30 35  
Month to date heating degree days 683 676  
Since 1 July heating degree days 1552 1812  
Cooling Degree Days 0 0  
Month to date cooling degree days 0 0  
Year to date cooling degree days 277 191  
Moisture  
Dew Point 31 °F    
Average Humidity 76    
Maximum Humidity 92    
Minimum Humidity 60    
Precipitation  
Precipitation 0.00 in 0.13 in 2.12 in (2005)
Month to date precipitation 1.79 2.97  
Year to date precipitation 42.61 35.65  
Sea Level Pressure  
Sea Level Pressure 30.16 in    
Wind  
Wind Speed 6 mph (SSW)    
Max Wind Speed 12 mph    
Max Gust Speed 20 mph    
Visibility 7 miles    
Events      
T = Trace of Precipitation, MM = Missing Value Source: NWS Daily Summary

Daily Weather History Graph

Daily Weather History Graph

Search for Another Location

Airport or City:

Trip Planner

Search our weather history database for the weather conditions in past years. The results will help you decide how hot, cold, wet, or windy it might be!

Date:

Astronomy

Nov. 22, 2012 Rise Set
Actual Time 6:42 AM EST 3:52 PM EST
Civil Twilight 6:08 AM EST 4:25 PM EST
Nautical Twilight 5:32 AM EST 5:02 PM EST
Astronomical Twilight 4:56 AM EST 5:38 PM EST
Moon 12:51 PM EST (11/22) 12:41 AM EST (11/22)
Length of Visible Light 10h 16m
Length of Day
9h 10m
Waxing Gibbous, 71% of the Moon is Illuminated
Nov 22
Waxing Gibbous
Nov 28
Full
Dec 6
Last Quarter
Dec 13
New
Dec 20
First Quarter

Hourly Weather History & Observations

Time (EST) Temp. Windchill Dew Point Humidity Pressure Visibility Wind Dir Wind Speed Gust Speed Precip Events Conditions
12:53 AM 25.0 °F - 21.9 °F 88% 30.24 in 8.0 mi Calm Calm - N/A   Clear
1:53 AM 26.1 °F 19.4 °F 24.1 °F 92% 30.23 in 10.0 mi South 5.8 mph - N/A   Clear
2:53 AM 30.0 °F 26.5 °F 27.0 °F 88% 30.22 in 10.0 mi South 3.5 mph - N/A   Clear
3:53 AM 27.0 °F 23.0 °F 24.1 °F 89% 30.22 in 10.0 mi South 3.5 mph - N/A   Clear
4:53 AM 30.9 °F 26.2 °F 28.0 °F 89% 30.22 in 7.0 mi South 4.6 mph - N/A   Clear
5:53 AM 30.0 °F 24.1 °F 28.0 °F 92% 30.22 in 7.0 mi SSW 5.8 mph - N/A   Clear
6:53 AM 30.9 °F 25.2 °F 28.9 °F 92% 30.22 in 5.0 mi South 5.8 mph - N/A   Scattered Clouds
7:03 AM 30.2 °F 24.3 °F 28.4 °F 93% 30.19 in 5.0 mi SSW 5.8 mph - N/A   Mostly Cloudy
7:37 AM 30.2 °F 23.4 °F 28.4 °F 93% 30.20 in 2.5 mi SSW 6.9 mph - N/A   Overcast
7:42 AM 30.2 °F 24.3 °F 28.4 °F 93% 30.20 in 1.2 mi SSW 5.8 mph - N/A   Overcast
7:53 AM 30.9 °F 25.2 °F 28.9 °F 92% 30.23 in 1.0 mi SW 5.8 mph - N/A   Overcast
8:04 AM 30.2 °F 24.3 °F 28.4 °F 93% 30.20 in 0.8 mi SSW 5.8 mph - N/A   Overcast
8:13 AM 30.2 °F 22.6 °F 28.4 °F 93% 30.20 in 1.2 mi SSW 8.1 mph - N/A   Overcast
8:33 AM 30.2 °F 24.3 °F 28.4 °F 93% 30.20 in 0.8 mi SSW 5.8 mph - N/A   Overcast
8:53 AM 32.0 °F 26.4 °F 30.0 °F 92% 30.22 in 0.8 mi SSW 5.8 mph - N/A   Overcast
9:06 AM 32.0 °F 25.6 °F 30.2 °F 93% 30.20 in 1.2 mi SSW 6.9 mph - N/A   Overcast
9:26 AM 33.8 °F 28.6 °F 30.2 °F 87% 30.20 in 2.0 mi SSW 5.8 mph - N/A   Overcast
9:36 AM 33.8 °F 27.7 °F 32.0 °F 93% 30.20 in 5.0 mi SW 6.9 mph - N/A   Overcast
9:53 AM 35.1 °F 27.9 °F 33.1 °F 92% 30.22 in 6.0 mi SSW 9.2 mph - N/A   Mostly Cloudy
10:53 AM 37.9 °F 32.1 °F 35.1 °F 89% 30.20 in 9.0 mi SW 8.1 mph - N/A   Overcast
11:11 AM 37.4 °F 31.4 °F 33.8 °F 87% 30.17 in 9.0 mi SW 8.1 mph - N/A   Scattered Clouds
11:53 AM 39.9 °F 35.1 °F 34.0 °F 79% 30.18 in 10.0 mi SSW 6.9 mph - N/A   Clear
12:53 PM 44.1 °F 40.8 °F 35.1 °F 71% 30.16 in 10.0 mi SSW 5.8 mph - N/A   Clear
1:53 PM 45.0 °F 41.8 °F 34.0 °F 65% 30.14 in 10.0 mi SW 5.8 mph - N/A   Clear
2:53 PM 46.0 °F 42.5 °F 33.1 °F 61% 30.13 in 10.0 mi SSW 6.9 mph - N/A   Clear
3:53 PM 43.0 °F 39.5 °F 32.0 °F 65% 30.13 in 10.0 mi SSW 5.8 mph - N/A   Clear
4:53 PM 41.0 °F 37.1 °F 33.1 °F 73% 30.13 in 10.0 mi SSW 5.8 mph - N/A   Clear
5:53 PM 39.9 °F 34.5 °F 33.1 °F 77% 30.13 in 10.0 mi SSW 8.1 mph - N/A   Clear
6:53 PM 39.0 °F 32.8 °F 33.1 °F 79% 30.11 in 10.0 mi SSW 9.2 mph - N/A   Clear
7:53 PM 39.0 °F 34.0 °F 34.0 °F 82% 30.11 in 10.0 mi SSW 6.9 mph - N/A   Clear
8:53 PM 39.0 °F 35.7 °F 35.1 °F 86% 30.09 in 10.0 mi SSW 4.6 mph - N/A   Clear
9:11 PM 39.2 °F 34.2 °F 35.6 °F 87% 30.07 in 10.0 mi South 6.9 mph - N/A   Scattered Clouds
9:53 PM 37.9 °F 33.5 °F 34.0 °F 86% 30.08 in 10.0 mi SSW 5.8 mph - N/A   Clear
10:14 PM 37.4 °F 32.1 °F 35.6 °F 93% 30.05 in 9.0 mi SSW 6.9 mph - N/A   Scattered Clouds
10:24 PM 37.4 °F 33.8 °F 35.6 °F 93% 30.05 in 9.0 mi SSW 4.6 mph - N/A   Mostly Cloudy
10:53 PM 37.0 °F 31.0 °F 34.0 °F 89% 30.06 in 9.0 mi SSW 8.1 mph - N/A   Mostly Cloudy
11:07 PM 37.4 °F 31.4 °F 33.8 °F 87% 30.04 in 9.0 mi SSW 8.1 mph - N/A   Scattered Clouds
11:24 PM 37.4 °F 30.8 °F 33.8 °F 87% 30.03 in 8.0 mi SSW 9.2 mph 19.6 mph N/A   Mostly Cloudy
11:53 PM 37.0 °F 30.4 °F 35.1 °F 93% 30.04 in 8.0 mi South 9.2 mph - N/A   Overcast